Temperature
13 13 13 13 13 13 12 12 12 12 12 12 11 11 11 11 11 11 11 11 11 11 11 11 11 11 11 11 11 11 11 11 11 11 11 11 11 11 11 11 10 10 10
13 13 13 13 13 12 12 12 12 11 11 11 11 11 11 11 11 11 11 11 11 11 10 10 10 10 10 10 10 10 10 10 10 10 10 10 10 10 10 10 10 10 10
12 12 12 12 12 12 12 11 11 11 11 11 11 10 10 11 10 10 11 11 11 10 10 10 10 10 10 10 10 10 10 10 10 10 10 10 10 10 10 10 10 10 10
12 12 12 12 12 11 11 11 11 11 10 10 10 10 10 10 10 10 10 10 10 10 10 10 10 9 9 9 9 9 10 9 9 10 9 9 10 9 9 9 9 9 9
12 12 12 12 11 11 11 11 10 10 10 10 10 10 9 9 9 9 10 10 10 10 10 10 10 9 9 9 9 9 9 9 9 9 9 9 9 9 9 9 9 9 9
11 11 11 11 11 11 10 10 10 10 10 9 9 9 9 9 9 9 9 9 9 9 9 9 9 9 9 9 9 9 9 9 9 9 9 9 9 9 9 8 8 8 8
11 11 11 11 11 11 10 10 10 9 9 9 9 9 8 8 9 9 8 9 9 9 9 9 9 9 9 9 9 9 8 8 8 8 8 8 8 8 8 8 8 8 8
11 11 11 11 10 10 10 10 10 9 9 9 9 8 8 8 8 8 8 8 8 8 8 8 8 8 8 8 8 8 8 8 8 8 8 8 8 8 8 8 7 8 8
10 10 10 10 10 10 10 10 10 10 9 9 9 9 8 8 7 8 8 8 8 8 8 8 8 8 8 8 8 8 8 8 8 8 7 7 8 8 7 7 7 7 7
10 10 10 10 10 10 10 10 9 9 9 9 8 8 8 8 8 7 7 7 7 7 8 8 8 8 8 8 7 7 8 7 7 7 7 7 7 7 7 7 7 7 7
10 10 10 10 10 9 9 9 9 9 9 9 8 8 8 8 8 8 7 7 7 8 7 7 7 7 7 7 7 7 7 7 7 7 7 7 7 7 7 7 7 6 7
9 9 9 9 9 9 9 9 9 9 9 8 8 8 8 8 8 8 8 7 7 7 7 7 7 7 7 7 7 7 7 7 7 7 7 6 6 6 6 6 6 6 6
9 9 9 9 9 9 9 9 8 8 8 8 8 8 8 8 8 8 8 7 6 6 7 7 7 7 7 7 7 7 6 6 6 6 6 6 6 6 6 6 6 6 6
9 9 9 9 8 8 8 8 8 8 8 8 8 8 8 7 7 7 7 7 6 6 6 6 7 7 7 7 7 6 6 6 6 6 6 6 6 5 5 5 5 5 5
8 8 8 8 8 8 8 8 8 8 7 7 7 7 7 7 7 7 7 7 6 6 6 6 6 6 6 6 6 6 6 6 6 6 6 6 5 5 5 5 5 5 5
8 8 8 8 8 8 7 7 7 7 7 7 7 7 7 7 6 6 6 6 6 6 6 6 6 6 6 6 6 6 6 6 5 5 5 5 5 5 5 4 4 4 4
7 7 7 7 7 7 7 7 7 7 7 7 7 6 6 6 6 6 6 6 6 5 5 5 6 5 5 5 5 5 5 5 5 5 5 5 5 4 4 4 4 4 4
7 7 7 7 7 7 7 7 7 7 6 6 6 6 6 6 6 6 5 5 5 5 5 5 5 5 5 5 5 5 5 4 4 5 4 4 4 4 4 4 4 3 3
6 6 6 6 6 6 6 6 6 6 6 6 6 6 6 5 5 5 5 5 5 4 4 4 4 4 4 4 4 4 4 4 4 4 4 4 4 4 4 3 3 3 3
6 6 6 6 6 6 6 6 5 5 6 5 5 5 5 5 5 5 5 4 4 4 4 4 4 4 4 4 3 3 3 3 4 4 4 4 3 3 3 3 3 3 3
5 5 5 5 5 5 5 5 5 5 5 5 5 5 5 5 5 4 4 4 4 4 4 3 3 3 3 3 3 3 3 3 3 3 3 3 3 3 3 3 3 2 2
4 5 5 5 5 5 5 5 5 4 4 4 4 4 4 4 4 4 4 4 4 3 3 3 3 3 3 3 3 2 2 2 2 3 3 3 3 3 2 2 2 2 2
4 4 4 4 4 4 4 4 4 4 4 4 4 4 4 4 4 4 3 3 3 3 3 3 2 2 2 2 2 2 2 2 2 2 2 2 2 2 2 2 1 1 1
3 3 3 3 4 4 4 4 3 3 3 3 3 3 3 3 3 3 3 3 2 2 2 2 2 2 2 2 2 2 1 1 1 1 1 1 2 2 2 1 1 1 1
2 3 3 3 3 3 3 3 3 3 3 3 3 3 2 2 3 2 2 2 2 2 2 2 2 2 2 1 1 1 1 1 1 1 1 0 1 1 1 1 1 1 0
2 2 2 2 2 2 2 2 2 2 2 2 2 2 2 2 2 2 2 1 1 1 1 1 1 1 1 1 1 1 0 0 0 0 0 -0 0 -0 -0 1 1 0 0
Wind_Speed
5 6 5 6 6 6 6 5 5 4 4 5 5 6 6 6 6 5 5 6 6 6 6 7 7 7 6 5 5 6 6 6 6 7 7 7 6 6 6 7 6 7 6
7 6 5 5 6 7 7 6 5 4 4 4 4 5 5 6 6 6 5 5 6 6 6 6 6 6 5 5 4 4 5 6 6 6 6 6 6 6 6 6 6 5 5
9 7 5 5 6 7 8 6 5 5 4 4 3 4 5 5 5 6 6 6 5 5 5 5 5 5 4 4 4 4 4 5 5 6 5 5 4 5 4 4 4 4 5
11 8 6 5 7 8 7 5 4 4 3 3 3 2 4 4 5 5 6 6 5 4 4 4 4 4 3 4 4 4 4 4 4 5 4 4 3 3 3 3 3 3 3
11 9 6 6 8 6 5 5 4 4 4 3 3 3 3 3 4 5 5 5 5 5 4 4 4 3 3 3 3 3 4 4 3 3 3 3 3 3 2 2 1 1 2
11 9 6 7 8 5 4 4 4 4 4 4 4 4 3 2 3 3 3 4 4 4 4 4 5 4 3 3 2 1 2 2 2 2 2 2 2 2 1 1 1 0 1
10 9 6 6 6 5 6 6 4 4 3 4 4 3 3 3 2 1 2 3 3 4 4 4 4 3 3 2 1 1 1 1 1 1 1 2 2 2 2 2 2 2 2
10 9 7 6 6 6 6 6 5 4 2 3 4 3 1 1 2 1 0 2 2 3 3 3 4 3 3 2 1 0 1 1 2 2 1 1 3 3 3 4 3 3 3
9 9 9 7 7 7 7 7 7 6 4 2 2 4 4 3 1 2 1 1 1 2 2 4 4 5 4 3 2 2 2 2 3 4 3 3 3 4 4 4 4 4 4
8 9 9 9 8 6 7 7 6 5 6 4 2 1 2 3 3 1 2 1 2 2 3 3 4 5 5 5 5 4 4 4 4 5 5 5 5 5 5 6 5 5 5
6 8 9 8 7 6 7 7 6 6 5 5 4 2 2 1 2 3 2 2 2 3 3 4 5 5 6 7 6 6 5 6 6 6 6 6 6 7 7 6 6 6 6
4 5 7 7 7 6 7 7 7 8 7 6 5 4 4 3 3 3 3 3 3 3 3 3 4 5 6 7 7 7 7 7 7 7 7 7 7 7 7 7 7 7 7
4 6 6 6 6 7 7 7 7 7 8 7 7 5 4 4 4 3 3 2 2 2 2 2 4 6 7 7 7 8 8 9 9 9 9 8 8 7 7 7 7 7 7
5 6 6 6 7 7 7 7 6 6 6 7 7 6 4 4 4 4 4 3 2 2 2 4 2 5 7 8 9 9 8 10 10 10 9 9 8 7 7 7 8 8 8
4 6 6 6 6 7 7 7 6 7 6 7 7 7 5 4 4 3 4 4 4 4 5 4 3 3 6 8 9 8 8 9 10 10 9 9 9 8 8 8 9 9 9
4 5 6 6 6 5 6 6 5 6 6 6 5 6 6 4 4 3 4 4 4 4 4 4 4 3 4 5 8 8 8 9 10 10 10 10 10 10 9 9 10 10 9
5 5 6 6 6 6 5 6 6 6 7 6 6 7 7 5 4 4 3 3 3 3 4 3 2 2 3 3 4 6 7 7 8 11 11 11 11 10 10 10 10 10 9
5 5 5 6 5 5 6 6 7 7 7 7 7 6 6 5 5 4 4 4 4 3 3 4 3 2 3 3 3 3 4 6 7 10 11 11 11 11 11 11 10 10 10
4 4 5 6 6 6 6 6 6 6 7 7 7 7 7 6 6 4 5 5 4 3 3 3 3 2 2 2 2 2 3 4 6 8 10 11 11 11 11 11 11 11 11
4 4 5 5 5 5 5 5 6 6 6 6 6 7 7 7 7 6 5 5 4 4 3 3 3 2 2 1 1 2 3 3 4 6 8 9 10 11 11 11 11 11 11
4 4 4 4 4 4 5 5 6 6 6 6 5 6 6 7 8 7 6 6 6 5 4 4 3 2 2 2 3 2 3 3 4 3 3 5 6 7 9 11 11 12 12
3 3 4 4 4 4 5 7 6 5 6 6 6 5 5 6 8 9 9 9 8 7 6 5 4 5 5 4 3 3 3 2 4 2 2 5 4 5 7 9 11 11 11
3 3 3 3 4 4 5 7 7 5 5 5 5 5 4 5 6 6 7 8 8 9 9 7 7 7 6 6 5 4 4 5 5 3 2 4 3 5 7 9 11 11 11
2 2 2 3 3 4 5 6 6 5 4 4 5 5 5 5 6 6 6 5 5 6 7 6 6 6 6 5 6 6 5 4 2 2 2 3 3 4 5 8 10 11 11
2 2 2 2 2 3 4 5 5 3 3 4 4 4 5 5 7 7 6 5 4 4 5 6 6 6 6 6 5 2 2 1 3 3 2 2 2 3 3 4 7 9 10
2 2 1 2 2 2 3 4 4 3 3 3 2 3 5 5 6 7 6 6 6 5 3 2 2 3 3 4 5 5 4 4 2 3 2 2 2 1 3 3 3 6 8
Wind_Direction
150 150 148 147 147 144 140 131 125 122 115 115 113 111 111 109 104 104 112 120 125 129 130 131 130 124 117 111 111 114 111 109 114 114 110 105 99 96 93 82 80 72 78
156 154 152 153 154 155 154 146 137 125 117 114 110 117 121 117 109 108 108 116 123 126 129 133 133 129 126 123 120 120 116 110 116 121 117 109 104 99 93 86 78 75 71
159 156 156 159 163 160 152 139 127 117 113 109 106 113 119 114 110 111 111 107 110 121 131 137 140 133 129 130 127 127 118 108 111 116 120 117 111 106 95 89 80 79 71
162 153 153 159 160 153 148 140 136 128 122 117 109 106 108 112 110 114 113 110 107 110 126 132 141 137 135 130 127 126 119 114 109 106 107 117 127 121 107 91 84 73 70
163 156 154 155 154 145 146 151 142 142 135 122 107 90 91 106 114 117 111 115 113 113 117 120 119 119 120 117 124 145 141 134 128 116 107 110 124 134 131 127 91 62 44
164 156 153 155 151 144 144 143 142 137 137 132 106 81 64 80 105 114 123 123 123 128 127 120 120 119 110 101 98 111 143 142 132 143 146 155 157 157 171 192 215 271 345
165 159 156 157 156 159 160 150 136 132 127 129 106 77 32 32 71 96 116 125 129 145 139 138 138 140 142 122 97 103 148 163 131 146 212 218 208 209 208 215 245 266 271
169 168 162 167 164 157 155 156 142 139 145 149 134 125 107 349 343 6 152 151 155 157 160 173 172 172 164 158 166 144 248 245 255 254 260 266 243 238 238 239 249 253 271
173 171 170 167 167 165 169 170 163 152 163 186 156 147 158 201 242 307 278 213 199 187 188 191 192 196 194 193 206 219 245 257 267 263 261 258 265 255 251 253 256 257 261
176 174 173 172 171 170 172 177 173 161 161 174 186 163 150 152 159 210 305 285 242 224 216 202 201 206 209 210 219 228 238 248 262 270 266 262 263 266 260 257 257 264 267
180 175 175 174 174 176 179 179 174 171 171 175 176 161 136 115 135 162 222 261 268 246 226 211 206 209 215 217 223 230 237 243 256 265 266 266 266 264 263 264 262 266 269
186 181 179 178 178 180 182 183 181 180 184 183 183 177 169 171 182 172 194 223 239 260 247 222 213 216 219 221 227 233 235 243 252 259 262 264 268 265 262 263 263 268 272
194 193 187 185 184 185 184 181 182 187 188 188 193 198 195 194 175 167 170 196 237 266 271 253 228 223 227 227 230 232 234 241 248 256 261 263 266 267 265 267 268 268 272
199 190 188 188 187 186 186 182 187 193 192 195 200 198 199 203 187 179 173 173 217 261 260 252 249 225 227 228 233 233 235 239 244 252 259 261 266 265 264 266 271 272 271
190 183 184 184 186 187 187 182 193 197 193 197 200 200 202 205 196 197 184 178 185 225 246 238 239 238 228 229 234 230 233 240 243 248 251 255 261 261 259 261 265 268 266
182 179 180 184 186 187 187 185 192 194 193 198 197 197 204 206 200 197 196 197 198 207 235 232 233 243 223 232 236 230 234 243 243 246 248 252 256 256 255 256 258 259 261
178 182 183 183 188 190 188 191 197 193 197 200 199 200 206 199 198 199 194 196 206 202 232 255 245 234 224 234 237 230 233 235 244 249 252 254 253 252 253 255 256 257 259
183 184 180 182 188 192 192 194 200 198 201 202 203 202 208 202 200 202 199 204 211 210 213 237 248 232 235 233 231 232 238 241 244 250 254 256 251 249 251 254 255 256 258
181 181 176 184 189 194 198 200 200 202 206 205 203 203 205 198 204 204 201 205 208 210 208 218 240 239 240 236 237 255 257 253 254 254 257 253 248 248 251 252 254 256 259
179 183 187 190 193 194 198 201 201 202 207 208 206 205 205 203 207 204 205 205 200 201 202 212 231 233 235 235 206 240 271 267 267 264 256 253 253 252 252 254 255 257 259
184 182 181 185 186 191 199 198 201 202 205 206 206 206 209 208 209 209 209 203 197 203 205 214 225 230 233 218 226 224 248 276 280 256 265 256 255 254 256 258 257 258 261
182 177 183 188 193 208 208 205 203 202 203 205 209 210 211 212 217 218 219 211 204 203 208 216 227 233 239 228 224 224 237 265 276 249 244 265 242 246 258 256 263 265 265
179 185 197 198 205 214 209 208 206 201 201 205 207 208 216 219 217 218 223 222 223 223 216 214 224 230 232 223 215 224 225 235 251 243 231 263 248 251 258 260 266 265 266
177 188 200 207 211 223 212 208 202 201 201 207 208 210 214 223 222 212 211 218 226 230 229 227 226 230 229 219 210 220 227 239 278 260 197 254 273 261 272 265 262 262 265
174 189 196 198 210 234 222 208 198 199 201 209 213 213 212 219 223 211 204 213 225 239 239 229 231 235 237 230 211 191 193 233 272 261 205 228 265 286 279 261 265 266 269
181 179 192 204 209 221 220 206 196 195 202 209 211 216 219 220 218 210 206 207 219 228 223 231 235 245 233 221 209 202 204 213 251 255 220 209 241 279 289 274 268 271 270
Height
1535 1537 1539 1540 1542 1543 1545 1546 1548 1549 1550 1552 1553 1554 1555 1556 1557 1557 1558 1558 1559 1559 1559 1560 1560 1560 1560 1560 1560 1560 1560 1560 1561 1561 1561 1561 1562 1562 1562 1561 1561 1561 1561
1533 1535 1537 1539 1540 1542 1544 1545 1547 1548 1549 1551 1552 1553 1554 1555 1556 1557 1557 1558 1558 1558 1559 1559 1559 1559 1559 1559 1559 1560 1560 1560 1560 1560 1561 1561 1561 1561 1561 1561 1561 1561 1560
1531 1533 1535 1537 1539 1540 1542 1544 1545 1547 1548 1549 1551 1552 1553 1554 1555 1556 1556 1557 1557 1558 1558 1558 1558 1558 1558 1559 1559 1559 1559 1559 1559 1559 1560 1560 1560 1560 1560 1560 1560 1560 1560
1529 1531 1533 1535 1537 1538 1540 1542 1543 1545 1546 1548 1549 1551 1552 1553 1554 1554 1555 1556 1556 1557 1557 1557 1557 1557 1558 1558 1558 1558 1558 1558 1558 1558 1559 1559 1559 1559 1559 1559 1559 1559 1559
1527 1529 1531 1533 1535 1536 1538 1540 1541 1543 1544 1546 1548 1549 1550 1551 1552 1553 1554 1554 1555 1555 1556 1556 1556 1556 1557 1557 1557 1557 1557 1557 1557 1557 1557 1558 1558 1558 1558 1558 1558 1558 1557
1524 1526 1528 1530 1532 1534 1536 1537 1539 1541 1543 1544 1546 1547 1549 1550 1551 1551 1552 1553 1553 1554 1554 1554 1555 1555 1555 1555 1555 1556 1556 1556 1556 1556 1556 1556 1556 1556 1556 1556 1556 1556 1556
1522 1524 1526 1528 1530 1532 1533 1535 1537 1539 1540 1542 1544 1545 1547 1548 1549 1549 1550 1550 1551 1552 1552 1553 1553 1553 1553 1553 1554 1554 1554 1554 1554 1554 1554 1554 1554 1554 1554 1554 1554 1554 1554
1519 1521 1523 1525 1527 1529 1531 1532 1534 1536 1538 1540 1541 1542 1544 1547 1546 1547 1547 1548 1549 1550 1550 1551 1551 1551 1551 1551 1552 1552 1552 1553 1553 1552 1552 1552 1552 1552 1552 1552 1552 1552 1552
1515 1518 1520 1522 1524 1526 1527 1529 1531 1532 1534 1537 1538 1540 1541 1542 1543 1544 1544 1545 1546 1547 1547 1548 1549 1549 1549 1549 1549 1550 1550 1550 1550 1550 1550 1550 1550 1550 1550 1550 1550 1549 1549
1512 1514 1517 1519 1520 1522 1524 1526 1528 1529 1531 1533 1535 1536 1538 1539 1540 1540 1542 1542 1543 1544 1544 1545 1546 1546 1547 1547 1547 1547 1547 1548 1548 1547 1547 1547 1547 1547 1547 1547 1547 1546 1546
1508 1511 1513 1515 1517 1519 1521 1523 1524 1526 1528 1530 1531 1533 1534 1536 1536 1537 1538 1539 1540 1541 1542 1542 1543 1543 1543 1544 1544 1544 1544 1544 1544 1544 1544 1544 1544 1544 1544 1544 1543 1543 1543
1504 1507 1509 1511 1513 1515 1517 1519 1521 1523 1524 1526 1528 1530 1531 1532 1533 1534 1534 1535 1536 1537 1538 1539 1539 1540 1540 1540 1540 1541 1541 1541 1541 1541 1541 1540 1540 1540 1540 1540 1540 1539 1539
1500 1502 1505 1507 1509 1511 1513 1515 1517 1519 1520 1522 1524 1526 1527 1528 1530 1531 1532 1532 1533 1534 1534 1535 1536 1536 1537 1537 1537 1537 1537 1537 1537 1537 1537 1537 1536 1536 1536 1536 1536 1535 1535
1495 1498 1500 1503 1505 1507 1509 1511 1513 1515 1517 1518 1520 1522 1524 1525 1526 1527 1528 1529 1529 1530 1530 1530 1532 1533 1533 1533 1533 1533 1533 1533 1533 1533 1533 1533 1532 1532 1532 1531 1531 1531 1531
1492 1494 1496 1499 1501 1503 1505 1507 1509 1511 1513 1514 1516 1517 1519 1521 1522 1523 1525 1526 1527 1526 1525 1526 1527 1528 1529 1529 1529 1529 1529 1529 1529 1528 1528 1528 1528 1528 1527 1527 1527 1527 1526
1488 1490 1492 1495 1497 1499 1501 1503 1504 1506 1508 1510 1511 1513 1514 1516 1518 1519 1520 1521 1522 1523 1521 1521 1522 1524 1524 1524 1525 1525 1525 1524 1524 1524 1524 1523 1523 1523 1523 1523 1522 1522 1522
1484 1486 1488 1491 1493 1494 1496 1498 1500 1502 1503 1505 1507 1508 1509 1511 1512 1514 1515 1516 1517 1518 1517 1517 1518 1519 1520 1520 1520 1520 1520 1520 1519 1519 1519 1518 1518 1518 1518 1517 1517 1517 1517
1480 1482 1484 1486 1488 1490 1492 1494 1495 1497 1499 1500 1502 1503 1505 1506 1507 1509 1510 1511 1512 1513 1514 1513 1513 1514 1515 1515 1515 1515 1515 1515 1515 1514 1514 1513 1513 1512 1512 1512 1512 1512 1511
1476 1478 1480 1482 1484 1486 1487 1489 1491 1492 1494 1496 1497 1499 1500 1501 1502 1504 1505 1506 1507 1508 1509 1509 1509 1509 1510 1510 1510 1510 1510 1510 1510 1509 1509 1508 1508 1507 1507 1507 1507 1506 1506
1472 1474 1476 1478 1479 1481 1483 1484 1486 1488 1489 1491 1492 1494 1495 1496 1497 1499 1500 1501 1502 1503 1504 1504 1504 1504 1505 1505 1505 1505 1504 1505 1504 1504 1503 1503 1503 1503 1502 1502 1501 1501 1500
1468 1470 1472 1474 1475 1477 1478 1480 1482 1483 1484 1486 1487 1489 1490 1492 1493 1494 1495 1496 1497 1498 1499 1499 1499 1499 1499 1500 1500 1500 1500 1499 1499 1499 1498 1498 1498 1497 1497 1496 1496 1495 1494
1464 1466 1468 1469 1471 1472 1474 1476 1477 1478 1480 1481 1482 1484 1485 1487 1488 1489 1491 1492 1493 1493 1493 1494 1494 1494 1494 1495 1495 1495 1495 1494 1493 1493 1493 1492 1492 1491 1491 1490 1490 1489 1488
1461 1462 1464 1465 1467 1468 1470 1472 1473 1474 1475 1476 1478 1479 1481 1482 1483 1484 1485 1487 1488 1488 1489 1490 1489 1489 1490 1490 1490 1490 1490 1489 1488 1488 1487 1485 1486 1485 1485 1484 1484 1483 1482
1457 1458 1460 1461 1463 1464 1466 1467 1469 1470 1471 1472 1473 1475 1476 1477 1478 1479 1480 1481 1482 1482 1483 1484 1485 1485 1485 1485 1485 1485 1485 1484 1484 1483 1482 1480 1479 1479 1479 1478 1477 1477 1476
1453 1455 1456 1458 1459 1460 1462 1463 1464 1465 1466 1467 1469 1470 1471 1472 1473 1474 1475 1475 1476 1477 1478 1479 1479 1479 1480 1480 1480 1480 1479 1479 1477 1477 1477 1476 1474 1473 1472 1472 1472 1471 1470
1450 1451 1452 1454 1455 1456 1457 1458 1460 1461 1462 1463 1464 1465 1466 1467 1468 1469 1469 1470 1470 1471 1472 1473 1473 1474 1474 1475 1475 1475 1475 1474 1473 1472 1472 1471 1469 1468 1466 1466 1466 1465 1464